Location: Cambroso
(45.2833°N, 12.0850°E)
Time: 19:33:15
(UTC+00:00)

MOS 1 Rocket - Pass Details

Date: 21 January 2021
Orbit: 614 x 830 km, 97.4° (Epoch: 03 March)

Event Time Altitude Azimuth Distance (km) Brightness Sun altitude
Exits shadow 17:50:47 - 8° (N) 2,875 6.3 -18.6°
Reaches altitude 10° 17:52:54 10° 6° (N) 2,001 5.5 -19.0°
Maximum altitude 17:57:09 61° 286° (WNW) 702 3.5 -19.7°
Drops below altitude 10° 18:01:21 10° 206° (SSW) 1,973 6.1 -20.5°
Sets 18:03:33 0° 203° (SSW) 2,883 6.9 -20.9°
